| time (UTC) | temp F | wind direction | speed knots | gust knots | rain 1hr in | rain 24hr in | rain mn in | humidity % | barometer mb |
| 20260510120021 | 58 | 27 | 0.0 | 0.9 | 0.00 | 0.00 | 0.00 | 86 | 1014.9 |
| 20260510115522 | 58 | 27 | 0.0 | 1.7 | 0.00 | 0.00 | 0.00 | 85 | 1014.8 |
| 20260510115018 | 58 | 27 | 0.0 | 2.6 | 0.00 | 0.00 | 0.00 | 85 | 1014.7 |
| 20260510114516 | 58 | 27 | 0.9 | 2.6 | 0.00 | 0.00 | 0.00 | 85 | 1014.5 |
| 20260510114016 | 58 | 27 | 0.9 | 4.3 | 0.00 | 0.00 | 0.00 | 84 | 1014.4 |
| 20260510113514 | 58 | 27 | 0.9 | 4.3 | 0.00 | 0.00 | 0.00 | 84 | 1014.1 |
| 20260510113012 | 58 | 27 | 0.9 | 2.6 | 0.00 | 0.00 | 0.00 | 83 | 1013.9 |
| 20260510112515 | 59 | 27 | 0.0 | 0.0 | 0.00 | 0.00 | 0.00 | 83 | 1013.7 |
| 20260510112011 | 59 | 27 | 0.0 | 0.0 | 0.00 | 0.00 | 0.00 | 83 | 1013.7 |
| 20260510111511 | 59 | 27 | 0.0 | 0.0 | 0.00 | 0.00 | 0.00 | 82 | 1013.7 |
| 20260510111009 | 59 | 27 | 0.0 | 0.0 | 0.00 | 0.00 | 0.00 | 82 | 1013.7 |
| 20260510110509 | 59 | 27 | 0.0 | 0.0 | 0.00 | 0.00 | 0.00 | 82 | 1013.6 |
| 20260510110024 | 59 | 27 | 0.0 | 0.0 | 0.00 | 0.00 | 0.00 | 82 | 1013.5 |
| 20260510105508 | 59 | 27 | 0.0 | 0.0 | 0.00 | 0.00 | 0.00 | 81 | 1013.5 |
| 20260510105011 | 60 | 27 | 0.0 | 0.0 | 0.00 | 0.00 | 0.00 | 81 | 1013.4 |
| 20260510104507 | 60 | 27 | 0.0 | 0.0 | 0.00 | 0.00 | 0.00 | 81 | 1013.5 |
| 20260510104006 | 60 | 27 | 0.0 | 0.0 | 0.00 | 0.00 | 0.00 | 80 | 1013.4 |
| 20260510103507 | 60 | 27 | 0.0 | 0.0 | 0.00 | 0.00 | 0.00 | 81 | 1013.5 |
| 20260510103007 | 60 | 27 | 0.0 | 0.0 | 0.00 | 0.00 | 0.00 | 81 | 1013.5 |
| 20260510102512 | 60 | 27 | 0.0 | 0.0 | 0.00 | 0.00 | 0.00 | 81 | 1013.4 |
| 20260510102007 | 60 | 27 | 0.0 | 0.0 | 0.00 | 0.00 | 0.00 | 81 | 1013.5 |
| 20260510101506 | 60 | 27 | 0.0 | 0.0 | 0.00 | 0.00 | 0.00 | 80 | 1013.5 |
| 20260510101006 | 61 | 27 | 0.0 | 0.0 | 0.00 | 0.00 | 0.00 | 80 | 1013.5 |
| 20260510100508 | 61 | 27 | 0.0 | 0.0 | 0.00 | 0.00 | 0.00 | 79 | 1013.4 |
| 20260510100006 | 61 | 27 | 0.0 | 0.0 | 0.00 | 0.00 | 0.00 | 79 | 1013.5 |
| 20260510095506 | 61 | 27 | 0.0 | 0.0 | 0.00 | 0.00 | 0.00 | 78 | 1013.5 |
| 20260510095006 | 61 | 27 | 0.0 | 0.0 | 0.00 | 0.00 | 0.00 | 79 | 1013.5 |
| 20260510094504 | 61 | 27 | 0.0 | 0.0 | 0.00 | 0.00 | 0.00 | 78 | 1013.5 |
| 20260510094004 | 61 | 27 | 0.0 | 0.0 | 0.00 | 0.00 | 0.00 | 78 | 1013.5 |
| 20260510093504 | 61 | 27 | 0.0 | 0.0 | 0.00 | 0.00 | 0.00 | 78 | 1013.5 |
| 20260510093003 | 61 | 27 | 0.0 | 0.0 | 0.00 | 0.00 | 0.00 | 77 | 1013.4 |
| 20260510092502 | 62 | 27 | 0.0 | 0.0 | 0.00 | 0.00 | 0.00 | 76 | 1013.3 |
| 20260510092000 | 62 | 27 | 0.0 | 0.0 | 0.00 | 0.00 | 0.00 | 76 | 1013.1 |
| 20260510091600 | 62 | 27 | 0.0 | 0.0 | 0.00 | 0.00 | 0.00 | 77 | 1012.9 |
| 20260510091100 | 62 | 27 | 0.0 | 0.0 | 0.00 | 0.00 | 0.00 | 76 | 1012.8 |
| 20260510090559 | 62 | 27 | 0.0 | 0.0 | 0.00 | 0.00 | 0.00 | 76 | 1012.8 |
| 20260510090116 | 62 | 27 | 0.0 | 0.0 | 0.00 | 0.00 | 0.00 | 77 | 1012.7 |
| 20260510085559 | 62 | 27 | 0.0 | 0.0 | 0.00 | 0.00 | 0.00 | 76 | 1012.8 |
| 20260510085058 | 62 | 27 | 0.0 | 0.0 | 0.00 | 0.00 | 0.00 | 76 | 1012.6 |
| 20260510084558 | 62 | 27 | 0.0 | 0.0 | 0.00 | 0.00 | 0.00 | 76 | 1012.6 |
| 20260510084058 | 62 | 27 | 0.0 | 0.0 | 0.00 | 0.00 | 0.00 | 75 | 1012.4 |
| 20260510083557 | 62 | 27 | 0.0 | 0.0 | 0.00 | 0.00 | 0.00 | 74 | 1012.4 |
| 20260510083110 | 62 | 27 | 0.0 | 0.0 | 0.00 | 0.00 | 0.00 | 74 | 1012.4 |
| 20260510082556 | 62 | 27 | 0.0 | 0.0 | 0.00 | 0.00 | 0.00 | 74 | 1012.6 |
| 20260510082056 | 62 | 27 | 0.0 | 0.0 | 0.00 | 0.00 | 0.00 | 74 | 1012.5 |
| 20260510081609 | 62 | 27 | 0.0 | 0.0 | 0.00 | 0.00 | 0.00 | 74 | 1012.3 |
| 20260510081056 | 62 | 27 | 0.0 | 2.6 | 0.00 | 0.00 | 0.00 | 76 | 1012.4 |
| 20260510080556 | 62 | 27 | 0.0 | 2.6 | 0.00 | 0.00 | 0.00 | 76 | 1012.5 |
| 20260510075555 | 62 | 27 | 0.0 | 2.6 | 0.00 | 0.00 | 0.00 | 77 | 1012.4 |
| 20260510075055 | 62 | 29 | 1.7 | 2.6 | 0.00 | 0.00 | 0.00 | 76 | 1012.3 |
| 20260510074603 | 62 | 121 | 0.9 | 1.7 | 0.00 | 0.00 | 0.00 | 77 | 1012.2 |
| 20260510074056 | 62 | 121 | 0.0 | 2.6 | 0.00 | 0.00 | 0.00 | 77 | 1012.2 |
| 20260510073554 | 62 | 121 | 0.9 | 2.6 | 0.00 | 0.00 | 0.00 | 78 | 1012.1 |
| 20260510073054 | 62 | 121 | 0.0 | 0.0 | 0.00 | 0.00 | 0.00 | 78 | 1011.9 |
| 20260510072553 | 62 | 121 | 0.0 | 0.0 | 0.00 | 0.00 | 0.00 | 77 | 1011.9 |
| 20260510072056 | 62 | 121 | 0.0 | 0.0 | 0.00 | 0.00 | 0.00 | 77 | 1011.8 |
| 20260510071552 | 62 | 121 | 0.0 | 0.0 | 0.00 | 0.00 | 0.00 | 76 | 1011.9 |
| 20260510071053 | 62 | 121 | 0.0 | 1.7 | 0.00 | 0.00 | 0.00 | 76 | 1011.9 |
| 20260510070551 | 62 | 121 | 0.0 | 1.7 | 0.00 | 0.00 | 0.00 | 77 | 1011.9 |
| 20260510070053 | 62 | 121 | 0.9 | 1.7 | 0.00 | 0.00 | 0.00 | 77 | 1011.6 |
| 20260510065555 | 62 | 121 | 0.9 | 1.7 | 0.00 | 0.00 | 0.00 | 77 | 1011.5 |
| 20260510065052 | 62 | 121 | 0.0 | 0.9 | 0.00 | 0.00 | 0.00 | 75 | 1011.3 |
| 20260510064600 | 61 | 121 | 0.0 | 1.7 | 0.00 | 0.00 | 0.00 | 76 | 1011.2 |
| 20260510064046 | 60 | 121 | 0.0 | 1.7 | 0.00 | 0.00 | 0.00 | 78 | 1011.2 |
| 20260510063545 | 60 | 121 | 0.0 | 1.7 | 0.00 | 0.00 | 0.00 | 80 | 1011.3 |
| 20260510063044 | 60 | 121 | 0.0 | 0.0 | 0.00 | 0.00 | 0.00 | 81 | 1011.5 |
| 20260510062543 | 60 | 121 | 0.0 | 0.0 | 0.00 | 0.00 | 0.00 | 83 | 1011.8 |
| 20260510062041 | 60 | 121 | 0.0 | 0.0 | 0.00 | 0.00 | 0.00 | 83 | 1012.2 |
| 20260510061541 | 60 | 121 | 0.0 | 0.0 | 0.00 | 0.00 | 0.00 | 83 | 1012.3 |
| 20260510061041 | 60 | 121 | 0.0 | 0.0 | 0.00 | 0.00 | 0.00 | 82 | 1012.3 |
| 20260510060539 | 60 | 121 | 0.0 | 0.0 | 0.00 | 0.00 | 0.00 | 83 | 1012.4 |
| 20260510060041 | 60 | 121 | 0.0 | 0.0 | 0.00 | 0.00 | 0.00 | 82 | 1012.5 |
| 20260510055538 | 60 | 121 | 0.0 | 0.0 | 0.00 | 0.00 | 0.00 | 82 | 1012.5 |
| 20260510055037 | 60 | 121 | 0.0 | 0.0 | 0.00 | 0.00 | 0.00 | 82 | 1012.7 |
| 20260510054537 | 60 | 121 | 0.0 | 0.0 | 0.00 | 0.00 | 0.00 | 82 | 1012.7 |
| 20260510054035 | 60 | 121 | 0.0 | 0.0 | 0.00 | 0.00 | 0.00 | 81 | 1012.7 |
| 20260510053535 | 60 | 121 | 0.0 | 0.0 | 0.00 | 0.00 | 0.00 | 81 | 1012.7 |
| 20260510053035 | 60 | 121 | 0.0 | 0.0 | 0.00 | 0.00 | 0.00 | 81 | 1012.7 |
| 20260510052536 | 60 | 121 | 0.0 | 0.0 | 0.00 | 0.00 | 0.00 | 81 | 1012.6 |
| 20260510052034 | 60 | 121 | 0.0 | 0.0 | 0.00 | 0.00 | 0.00 | 81 | 1012.7 |
| 20260510051534 | 60 | 121 | 0.0 | 0.0 | 0.00 | 0.00 | 0.00 | 81 | 1012.7 |
| 20260510051033 | 61 | 121 | 0.0 | 0.0 | 0.00 | 0.00 | 0.00 | 80 | 1012.7 |
| 20260510050533 | 61 | 121 | 0.0 | 0.0 | 0.00 | 0.00 | 0.00 | 80 | 1012.6 |
| 20260510050031 | 61 | 121 | 0.0 | 0.0 | 0.00 | 0.00 | 0.00 | 80 | 1012.5 |
| 20260510045534 | 61 | 121 | 0.0 | 0.0 | 0.00 | 0.00 | 0.00 | 80 | 1012.5 |
| 20260510045030 | 61 | 121 | 0.0 | 0.0 | 0.00 | 0.00 | 0.00 | 80 | 1012.4 |
| 20260510044535 | 61 | 121 | 0.0 | 0.0 | 0.00 | 0.00 | 0.00 | 79 | 1012.3 |
| 20260510044028 | 61 | 121 | 0.0 | 0.0 | 0.00 | 0.00 | 0.00 | 79 | 1012.2 |
| 20260510043528 | 61 | 121 | 0.0 | 0.0 | 0.00 | 0.00 | 0.00 | 78 | 1012.2 |
| 20260510043028 | 61 | 121 | 0.0 | 0.0 | 0.00 | 0.00 | 0.00 | 78 | 1012.2 |
| 20260510042529 | 62 | 121 | 0.0 | 0.0 | 0.00 | 0.00 | 0.00 | 77 | 1012.2 |
| 20260510042028 | 62 | 122 | 0.0 | 0.0 | 0.00 | 0.00 | 0.00 | 77 | 1012.2 |
| 20260510041529 | 62 | 121 | 0.0 | 0.0 | 0.00 | 0.00 | 0.00 | 77 | 1012.2 |
| 20260510041030 | 62 | 122 | 0.0 | 0.0 | 0.00 | 0.00 | 0.00 | 76 | 1012.2 |
| 20260510040529 | 62 | 122 | 0.0 | 0.0 | 0.00 | 0.00 | 0.00 | 76 | 1012.3 |
| 20260510040027 | 62 | 122 | 0.0 | 0.0 | 0.00 | 0.00 | 0.00 | 75 | 1012.3 |
| 20260510035526 | 63 | 122 | 0.0 | 0.0 | 0.00 | 0.00 | 0.00 | 75 | 1012.3 |
| 20260510035026 | 63 | 122 | 0.0 | 0.0 | 0.00 | 0.00 | 0.00 | 74 | 1012.2 |
| 20260510034524 | 63 | 122 | 0.0 | 0.0 | 0.00 | 0.00 | 0.00 | 73 | 1012.1 |
| 20260510034024 | 63 | 122 | 0.0 | 0.0 | 0.00 | 0.00 | 0.00 | 73 | 1012.0 |
| 20260510033523 | 63 | 122 | 0.0 | 0.0 | 0.00 | 0.00 | 0.00 | 73 | 1012.0 |
| 20260510033023 | 64 | 122 | 0.0 | 2.6 | 0.00 | 0.00 | 0.00 | 72 | 1011.9 |
| 20260510032522 | 64 | 122 | 1.7 | 2.6 | 0.00 | 0.00 | 0.00 | 71 | 1011.7 |
| 20260510032021 | 64 | 122 | 0.0 | 0.0 | 0.00 | 0.00 | 0.00 | 70 | 1011.5 |
| 20260510031524 | 65 | 122 | 0.0 | 0.0 | 0.00 | 0.00 | 0.00 | 69 | 1011.4 |
| 20260510031020 | 65 | 122 | 0.0 | 0.0 | 0.00 | 0.00 | 0.00 | 69 | 1011.4 |
| 20260510030521 | 65 | 122 | 0.0 | 0.0 | 0.00 | 0.00 | 0.00 | 69 | 1011.3 |
| 20260510030031 | 65 | 122 | 0.0 | 0.0 | 0.00 | 0.00 | 0.00 | 68 | 1011.3 |
| 20260510025519 | 66 | 122 | 0.0 | 0.0 | 0.00 | 0.00 | 0.00 | 68 | 1011.2 |
| 20260510025020 | 66 | 122 | 0.0 | 0.0 | 0.00 | 0.00 | 0.00 | 66 | 1011.2 |
| 20260510024519 | 67 | 122 | 0.0 | 0.0 | 0.00 | 0.00 | 0.00 | 65 | 1011.2 |
| 20260510024018 | 67 | 122 | 0.0 | 0.0 | 0.00 | 0.00 | 0.00 | 65 | 1011.1 |
| 20260510023522 | 68 | 122 | 0.0 | 0.0 | 0.00 | 0.00 | 0.00 | 64 | 1011.1 |
| 20260510023018 | 68 | 122 | 0.0 | 0.0 | 0.00 | 0.00 | 0.00 | 64 | 1011.0 |
| 20260510022518 | 68 | 122 | 0.0 | 0.0 | 0.00 | 0.00 | 0.00 | 59 | 1010.9 |
| 20260510022017 | 69 | 122 | 0.0 | 0.0 | 0.00 | 0.00 | 0.00 | 58 | 1010.7 |
| 20260510021519 | 69 | 122 | 0.0 | 0.0 | 0.00 | 0.00 | 0.00 | 59 | 1010.5 |
| 20260510021017 | 69 | 122 | 0.0 | 0.0 | 0.00 | 0.00 | 0.00 | 59 | 1010.4 |
| 20260510020517 | 70 | 122 | 0.0 | 0.0 | 0.00 | 0.00 | 0.00 | 58 | 1010.2 |
| 20260510020018 | 70 | 122 | 0.0 | 0.0 | 0.00 | 0.00 | 0.00 | 58 | 1010.1 |
| 20260510015520 | 71 | 122 | 0.0 | 0.0 | 0.00 | 0.00 | 0.00 | 60 | 1010.0 |
| 20260510015017 | 71 | 122 | 0.0 | 0.0 | 0.00 | 0.00 | 0.00 | 58 | 1009.9 |
| 20260510014516 | 72 | 122 | 0.0 | 0.0 | 0.00 | 0.00 | 0.00 | 51 | 1009.9 |
| 20260510014016 | 72 | 122 | 0.0 | 0.0 | 0.00 | 0.00 | 0.00 | 51 | 1009.7 |
| 20260510013517 | 73 | 122 | 0.0 | 0.0 | 0.00 | 0.00 | 0.00 | 52 | 1009.6 |
| 20260510013016 | 73 | 122 | 0.0 | 0.0 | 0.00 | 0.00 | 0.00 | 53 | 1009.6 |
| 20260510012515 | 74 | 122 | 0.0 | 0.0 | 0.00 | 0.00 | 0.00 | 54 | 1009.5 |
| 20260510012015 | 74 | 122 | 0.0 | 0.0 | 0.00 | 0.00 | 0.00 | 54 | 1009.5 |
| 20260510011516 | 74 | 122 | 0.0 | 0.0 | 0.00 | 0.00 | 0.00 | 48 | 1009.3 |
| 20260510011017 | 75 | 122 | 0.0 | 0.0 | 0.00 | 0.00 | 0.00 | 48 | 1009.1 |
| 20260510010515 | 75 | 122 | 0.0 | 0.0 | 0.00 | 0.00 | 0.00 | 49 | 1009.1 |
| 20260510010017 | 75 | 122 | 0.0 | 0.0 | 0.00 | 0.00 | 0.00 | 49 | 1009.1 |
| 20260510005514 | 76 | 122 | 0.0 | 0.0 | 0.00 | 0.02 | 0.00 | 51 | 1009.1 |
| 20260510005014 | 76 | 122 | 0.0 | 0.0 | 0.00 | 0.02 | 0.00 | 50 | 1009.0 |
| 20260510004513 | 76 | 122 | 0.0 | 0.0 | 0.00 | 0.02 | 0.00 | 48 | 1008.9 |
| 20260510004019 | 76 | 122 | 0.0 | 0.0 | 0.00 | 0.02 | 0.00 | 46 | 1008.9 |
| 20260510003513 | 77 | 122 | 0.0 | 0.0 | 0.00 | 0.02 | 0.00 | 44 | 1008.9 |
| 20260510003022 | 77 | 122 | 0.0 | 0.0 | 0.00 | 0.02 | 0.00 | 43 | 1008.9 |
| 20260510002513 | 77 | 122 | 0.0 | 0.0 | 0.00 | 0.02 | 0.00 | 43 | 1008.8 |
| 20260510002013 | 77 | 122 | 0.0 | 0.0 | 0.00 | 0.02 | 0.00 | 43 | 1008.8 |
| 20260510001512 | 78 | 122 | 0.0 | 0.0 | 0.00 | 0.02 | 0.00 | 45 | 1008.9 |
| 20260510001012 | 78 | 122 | 0.0 | 0.0 | 0.00 | 0.02 | 0.00 | 44 | 1008.9 |
| 20260510000512 | 78 | 122 | 0.0 | 0.0 | 0.00 | 0.02 | 0.00 | 43 | 1009.0 |
| 20260510000011 | 78 | 122 | 0.0 | 0.0 | 0.00 | 0.02 | 0.00 | 45 | 1009.0 |
| 20260509235512 | 78 | 122 | 0.0 | 0.0 | 0.00 | 0.02 | 0.00 | 44 | 1009.1 |
| 20260509235010 | 79 | 122 | 0.0 | 0.0 | 0.00 | 0.02 | 0.00 | 42 | 1009.1 |
| 20260509234513 | 79 | 122 | 0.0 | 0.0 | 0.00 | 0.02 | 0.00 | 41 | 1009.2 |
| 20260509234012 | 79 | 122 | 0.0 | 0.0 | 0.00 | 0.02 | 0.00 | 40 | 1009.1 |
| 20260509233509 | 79 | 122 | 0.0 | 0.0 | 0.00 | 0.02 | 0.00 | 40 | 1009.2 |
| 20260509233020 | 80 | 122 | 0.0 | 0.0 | 0.00 | 0.02 | 0.00 | 39 | 1009.2 |
| 20260509232513 | 80 | 122 | 0.0 | 0.0 | 0.00 | 0.02 | 0.00 | 38 | 1009.3 |
| 20260509232009 | 80 | 122 | 0.0 | 0.0 | 0.00 | 0.02 | 0.00 | 40 | 1009.2 |
| 20260509231509 | 80 | 126 | 0.0 | 0.0 | 0.00 | 0.02 | 0.00 | 40 | 1009.2 |
| 20260509231008 | 80 | 126 | 0.0 | 0.0 | 0.00 | 0.02 | 0.00 | 39 | 1009.2 |
| 20260509230508 | 81 | 126 | 0.0 | 0.0 | 0.00 | 0.02 | 0.00 | 40 | 1009.2 |
| 20260509230008 | 81 | 126 | 0.0 | 0.0 | 0.00 | 0.02 | 0.00 | 39 | 1009.2 |
| 20260509225508 | 81 | 126 | 0.0 | 0.0 | 0.00 | 0.02 | 0.00 | 39 | 1009.3 |
| 20260509225009 | 81 | 126 | 0.0 | 0.0 | 0.00 | 0.02 | 0.00 | 38 | 1009.3 |
| 20260509224507 | 81 | 126 | 0.0 | 0.0 | 0.00 | 0.02 | 0.00 | 38 | 1009.3 |
| 20260509224008 | 81 | 126 | 0.0 | 0.0 | 0.00 | 0.02 | 0.00 | 41 | 1009.2 |
| 20260509223505 | 81 | 126 | 0.0 | 1.7 | 0.00 | 0.02 | 0.00 | 40 | 1009.1 |
| 20260509223005 | 82 | 126 | 0.0 | 1.7 | 0.00 | 0.02 | 0.00 | 39 | 1009.2 |
| 20260509222505 | 82 | 126 | 0.0 | 0.0 | 0.00 | 0.02 | 0.00 | 41 | 1009.3 |
| 20260509222004 | 82 | 126 | 0.0 | 0.0 | 0.00 | 0.02 | 0.00 | 38 | 1009.3 |
| 20260509221506 | 82 | 126 | 0.0 | 0.0 | 0.00 | 0.02 | 0.00 | 39 | 1009.3 |
| 20260509221003 | 82 | 126 | 0.0 | 0.0 | 0.00 | 0.02 | 0.00 | 38 | 1009.4 |
| 20260509220502 | 82 | 126 | 0.0 | 0.0 | 0.00 | 0.02 | 0.00 | 39 | 1009.4 |
| 20260509220002 | 83 | 126 | 0.0 | 0.0 | 0.00 | 0.02 | 0.00 | 37 | 1009.6 |
| 20260509215502 | 83 | 126 | 0.0 | 0.0 | 0.00 | 0.02 | 0.00 | 39 | 1009.6 |
| 20260509215004 | 83 | 126 | 0.0 | 0.0 | 0.00 | 0.02 | 0.00 | 36 | 1009.5 |
| 20260509214500 | 84 | 126 | 0.0 | 0.0 | 0.00 | 0.02 | 0.00 | 37 | 1009.5 |
| 20260509214101 | 84 | 126 | 0.0 | 0.0 | 0.00 | 0.02 | 0.00 | 37 | 1009.5 |
| 20260509213600 | 84 | 126 | 0.0 | 0.9 | 0.00 | 0.02 | 0.00 | 37 | 1009.5 |
| 20260509213100 | 85 | 132 | 0.0 | 1.7 | 0.00 | 0.02 | 0.00 | 37 | 1009.5 |
| 20260509212558 | 85 | 132 | 0.9 | 2.6 | 0.00 | 0.02 | 0.00 | 37 | 1009.6 |
| 20260509212058 | 86 | 129 | 0.0 | 2.6 | 0.00 | 0.02 | 0.00 | 36 | 1009.6 |
| 20260509211559 | 86 | 129 | 0.0 | 0.0 | 0.00 | 0.02 | 0.00 | 37 | 1009.6 |
| 20260509211058 | 86 | 129 | 0.0 | 0.0 | 0.00 | 0.02 | 0.00 | 33 | 1009.6 |
| 20260509210557 | 86 | 129 | 0.0 | 0.0 | 0.00 | 0.02 | 0.00 | 35 | 1009.7 |
| 20260509210057 | 86 | 129 | 0.0 | 1.7 | 0.00 | 0.02 | 0.00 | 33 | 1009.8 |
| 20260509205556 | 86 | 129 | 0.0 | 1.7 | 0.00 | 0.02 | 0.00 | 34 | 1009.9 |
| 20260509205058 | 86 | 129 | 0.0 | 0.9 | 0.00 | 0.02 | 0.00 | 33 | 1009.9 |
| 20260509204556 | 85 | 129 | 0.0 | 0.9 | 0.00 | 0.02 | 0.00 | 32 | 1009.9 |
| 20260509204051 | 85 | 128 | 0.0 | 0.9 | 0.00 | 0.02 | 0.00 | 33 | 1010.0 |
| 20260509203550 | 85 | 128 | 0.0 | 0.9 | 0.00 | 0.02 | 0.00 | 34 | 1010.1 |
| 20260509203114 | 85 | 128 | 0.0 | 0.9 | 0.00 | 0.02 | 0.00 | 34 | 1010.1 |
| 20260509202548 | 85 | 128 | 0.0 | 0.0 | 0.00 | 0.02 | 0.00 | 34 | 1010.1 |
| 20260509202050 | 85 | 128 | 0.0 | 0.0 | 0.00 | 0.02 | 0.00 | 34 | 1010.3 |
| 20260509201549 | 85 | 128 | 0.0 | 1.7 | 0.00 | 0.02 | 0.00 | 34 | 1010.3 |
| 20260509201047 | 85 | 128 | 0.0 | 0.0 | 0.00 | 0.02 | 0.00 | 33 | 1010.3 |
| 20260509200546 | 84 | 128 | 0.0 | 0.0 | 0.00 | 0.02 | 0.00 | 35 | 1010.4 |
| 20260509200054 | 84 | 128 | 0.0 | 0.9 | 0.00 | 0.02 | 0.00 | 33 | 1010.3 |
| 20260509195543 | 83 | 128 | 0.0 | 0.9 | 0.00 | 0.02 | 0.00 | 33 | 1010.3 |
| 20260509195043 | 83 | 128 | 0.0 | 1.7 | 0.00 | 0.02 | 0.00 | 36 | 1010.3 |
| 20260509194543 | 83 | 128 | 0.0 | 1.7 | 0.00 | 0.02 | 0.00 | 34 | 1010.3 |
| 20260509194043 | 83 | 128 | 0.0 | 2.6 | 0.00 | 0.02 | 0.00 | 38 | 1010.3 |
| 20260509193543 | 83 | 52 | 0.0 | 2.6 | 0.00 | 0.02 | 0.00 | 40 | 1010.3 |
| 20260509193044 | 83 | 5 | 0.9 | 1.7 | 0.00 | 0.02 | 0.00 | 44 | 1010.4 |
| 20260509192541 | 82 | 5 | 0.0 | 1.7 | 0.00 | 0.02 | 0.00 | 40 | 1010.5 |
| 20260509192041 | 82 | 13 | 0.0 | 1.7 | 0.00 | 0.02 | 0.00 | 39 | 1010.5 |
| 20260509191548 | 82 | 10 | 0.0 | 4.3 | 0.00 | 0.02 | 0.00 | 41 | 1010.6 |
| 20260509191038 | 81 | 10 | 0.0 | 4.3 | 0.00 | 0.02 | 0.00 | 39 | 1010.6 |
| 20260509190536 | 81 | 50 | 0.0 | 2.6 | 0.00 | 0.02 | 0.00 | 42 | 1010.7 |
| 20260509190035 | 80 | 351 | 0.0 | 1.7 | 0.00 | 0.02 | 0.00 | 44 | 1010.7 |
| 20260509185534 | 80 | 351 | 0.0 | 1.7 | 0.00 | 0.02 | 0.00 | 43 | 1010.7 |
| 20260509185034 | 80 | 347 | 0.0 | 2.6 | 0.00 | 0.02 | 0.00 | 43 | 1010.8 |
| 20260509184535 | 80 | 347 | 0.0 | 2.6 | 0.00 | 0.02 | 0.00 | 44 | 1010.8 |
| 20260509184031 | 80 | 351 | 0.0 | 1.7 | 0.00 | 0.02 | 0.00 | 45 | 1010.9 |
| 20260509183531 | 79 | 36 | 0.0 | 0.9 | 0.00 | 0.02 | 0.00 | 45 | 1010.9 |
| 20260509183031 | 79 | 36 | 0.0 | 0.0 | 0.00 | 0.02 | 0.00 | 46 | 1010.9 |
| 20260509182530 | 79 | 36 | 0.0 | 0.0 | 0.00 | 0.02 | 0.00 | 44 | 1010.9 |
| 20260509182029 | 79 | 9 | 0.0 | 0.9 | 0.00 | 0.02 | 0.00 | 47 | 1010.9 |
| 20260509181531 | 79 | 9 | 0.0 | 1.7 | 0.00 | 0.02 | 0.00 | 51 | 1010.9 |
| 20260509181028 | 79 | 9 | 0.0 | 1.7 | 0.00 | 0.02 | 0.00 | 53 | 1010.8 |
| 20260509180527 | 79 | 220 | 0.0 | 0.0 | 0.00 | 0.02 | 0.00 | 54 | 1010.9 |
| 20260509180028 | 79 | 220 | 0.0 | 1.7 | 0.00 | 0.02 | 0.00 | 56 | 1010.9 |
| 20260509175527 | 80 | 220 | 0.0 | 1.7 | 0.00 | 0.02 | 0.00 | 56 | 1011.0 |
| 20260509175027 | 79 | 220 | 0.9 | 2.6 | 0.00 | 0.02 | 0.00 | 55 | 1011.0 |
| 20260509174527 | 80 | 220 | 0.0 | 2.6 | 0.00 | 0.02 | 0.00 | 54 | 1011.0 |
| 20260509174026 | 79 | 219 | 0.0 | 1.7 | 0.00 | 0.02 | 0.00 | 54 | 1011.1 |
| 20260509173525 | 79 | 219 | 0.0 | 1.7 | 0.00 | 0.02 | 0.00 | 55 | 1011.1 |
| 20260509173025 | 79 | 220 | 0.0 | 1.7 | 0.00 | 0.02 | 0.00 | 56 | 1011.2 |
| 20260509172524 | 79 | 220 | 0.0 | 1.7 | 0.00 | 0.02 | 0.00 | 55 | 1011.2 |
| 20260509172022 | 79 | 221 | 0.0 | 0.9 | 0.00 | 0.02 | 0.00 | 58 | 1011.2 |
| 20260509171521 | 78 | 221 | 0.0 | 0.9 | 0.00 | 0.02 | 0.00 | 58 | 1011.3 |
| 20260509171020 | 78 | 221 | 0.0 | 1.7 | 0.00 | 0.02 | 0.00 | 58 | 1011.2 |
| 20260509170519 | 78 | 221 | 0.0 | 1.7 | 0.00 | 0.02 | 0.00 | 60 | 1011.2 |
| 20260509170018 | 78 | 221 | 0.0 | 1.7 | 0.00 | 0.02 | 0.00 | 60 | 1011.2 |
| 20260509165516 | 77 | 221 | 0.0 | 1.7 | 0.00 | 0.02 | 0.00 | 60 | 1011.3 |
| 20260509165017 | 77 | 221 | 0.0 | 1.7 | 0.00 | 0.02 | 0.00 | 63 | 1011.3 |
| 20260509164513 | 77 | 221 | 0.0 | 2.6 | 0.00 | 0.02 | 0.00 | 65 | 1011.4 |
| 20260509164012 | 76 | 221 | 0.9 | 2.6 | 0.00 | 0.02 | 0.00 | 66 | 1011.3 |
| 20260509163513 | 76 | 220 | 0.0 | 0.9 | 0.00 | 0.02 | 0.00 | 68 | 1011.2 |
| 20260509163010 | 75 | 220 | 0.0 | 1.7 | 0.00 | 0.02 | 0.00 | 69 | 1011.2 |
| 20260509162508 | 74 | 220 | 0.0 | 1.7 | 0.00 | 0.02 | 0.00 | 70 | 1011.2 |
| 20260509162006 | 73 | 219 | 0.0 | 1.7 | 0.00 | 0.02 | 0.00 | 70 | 1011.3 |
| 20260509161505 | 73 | 219 | 0.0 | 1.7 | 0.00 | 0.02 | 0.00 | 76 | 1011.2 |
| 20260509161003 | 72 | 222 | 0.0 | 0.9 | 0.00 | 0.02 | 0.00 | 78 | 1011.1 |
| 20260509160502 | 71 | 222 | 0.0 | 1.7 | 0.00 | 0.02 | 0.00 | 83 | 1011.1 |
| 20260509160104 | 71 | 222 | 0.0 | 1.7 | 0.00 | 0.02 | 0.00 | 87 | 1011.1 |
| 20260509155559 | 70 | 161 | 0.0 | 0.0 | 0.00 | 0.02 | 0.00 | 89 | 1011.1 |
| 20260509155058 | 70 | 161 | 0.0 | 0.0 | 0.00 | 0.02 | 0.00 | 91 | 1011.1 |
| 20260509154557 | 68 | 161 | 0.0 | 0.0 | 0.00 | 0.02 | 0.00 | 92 | 1011.0 |
| 20260509154057 | 68 | 161 | 0.0 | 0.0 | 0.00 | 0.02 | 0.00 | 93 | 1011.0 |
| 20260509153553 | 67 | 161 | 0.0 | 0.0 | 0.00 | 0.02 | 0.00 | 94 | 1010.9 |
| 20260509153052 | 66 | 161 | 0.0 | 0.9 | 0.00 | 0.02 | 0.00 | 94 | 1011.0 |
| 20260509152550 | 65 | 161 | 0.0 | 0.9 | 0.00 | 0.02 | 0.00 | 95 | 1011.0 |
| 20260509152049 | 65 | 161 | 0.0 | 0.0 | 0.00 | 0.02 | 0.00 | 95 | 1011.0 |
| 20260509151548 | 65 | 161 | 0.0 | 0.9 | 0.00 | 0.02 | 0.00 | 95 | 1011.0 |
| 20260509151045 | 64 | 161 | 0.0 | 0.9 | 0.00 | 0.02 | 0.00 | 95 | 1011.2 |
| 20260509150543 | 64 | 161 | 0.0 | 0.0 | 0.00 | 0.02 | 0.00 | 95 | 1011.2 |
| 20260509150043 | 63 | 161 | 0.0 | 0.0 | 0.00 | 0.02 | 0.00 | 95 | 1011.3 |
| 20260509145541 | 63 | 161 | 0.0 | 0.0 | 0.00 | 0.02 | 0.00 | 95 | 1011.3 |
| 20260509145041 | 62 | 161 | 0.0 | 0.0 | 0.00 | 0.02 | 0.00 | 95 | 1011.3 |
| 20260509144541 | 61 | 161 | 0.0 | 0.0 | 0.00 | 0.02 | 0.00 | 95 | 1011.3 |
| 20260509144036 | 61 | 161 | 0.0 | 0.0 | 0.00 | 0.02 | 0.00 | 95 | 1011.3 |
| 20260509143535 | 60 | 161 | 0.0 | 0.0 | 0.00 | 0.02 | 0.00 | 95 | 1011.4 |
| 20260509143034 | 60 | 161 | 0.0 | 0.0 | 0.00 | 0.02 | 0.00 | 95 | 1011.3 |
| 20260509142533 | 60 | 161 | 0.0 | 0.0 | 0.00 | 0.02 | 0.00 | 95 | 1011.2 |
| 20260509142034 | 59 | 161 | 0.0 | 0.0 | 0.00 | 0.02 | 0.00 | 95 | 1011.2 |
| 20260509141532 | 59 | 161 | 0.0 | 0.9 | 0.00 | 0.02 | 0.00 | 95 | 1011.2 |
| 20260509141029 | 58 | 161 | 0.0 | 0.9 | 0.00 | 0.02 | 0.00 | 95 | 1011.2 |
| 20260509140527 | 58 | 161 | 0.0 | 0.0 | 0.00 | 0.02 | 0.00 | 95 | 1011.1 |
| 20260509140026 | 57 | 161 | 0.0 | 0.0 | 0.00 | 0.02 | 0.00 | 95 | 1011.0 |
| 20260509135526 | 57 | 161 | 0.0 | 0.0 | 0.00 | 0.02 | 0.00 | 95 | 1011.1 |
| 20260509135025 | 56 | 161 | 0.0 | 0.0 | 0.00 | 0.02 | 0.00 | 95 | 1011.0 |
| 20260509134525 | 55 | 161 | 0.0 | 0.0 | 0.00 | 0.02 | 0.00 | 95 | 1011.0 |
| 20260509134023 | 54 | 161 | 0.0 | 0.0 | 0.00 | 0.02 | 0.00 | 94 | 1010.9 |
| 20260509133522 | 54 | 161 | 0.0 | 0.0 | 0.00 | 0.02 | 0.00 | 94 | 1010.8 |
| 20260509133025 | 53 | 161 | 0.0 | 0.0 | 0.00 | 0.02 | 0.00 | 94 | 1010.7 |
| 20260509132523 | 53 | 161 | 0.0 | 0.0 | 0.00 | 0.02 | 0.00 | 94 | 1010.7 |
| 20260509132021 | 52 | 161 | 0.0 | 0.0 | 0.00 | 0.02 | 0.00 | 94 | 1010.7 |
| 20260509131522 | 52 | 161 | 0.0 | 0.0 | 0.00 | 0.02 | 0.00 | 94 | 1010.7 |
| 20260509131021 | 52 | 161 | 0.0 | 0.0 | 0.00 | 0.02 | 0.00 | 94 | 1010.7 |
| 20260509130520 | 52 | 161 | 0.0 | 0.0 | 0.00 | 0.02 | 0.00 | 94 | 1010.7 |
| 20260509130035 | 52 | 161 | 0.0 | 0.0 | 0.00 | 0.02 | 0.00 | 93 | 1010.7 |
| 20260509125523 | 51 | 161 | 0.0 | 0.0 | 0.00 | 0.02 | 0.00 | 93 | 1010.7 |
| 20260509125019 | 51 | 161 | 0.0 | 0.0 | 0.00 | 0.02 | 0.00 | 93 | 1010.7 |
| 20260509124522 | 51 | 161 | 0.0 | 0.0 | 0.00 | 0.02 | 0.00 | 93 | 1010.6 |
| 20260509124018 | 51 | 161 | 0.0 | 0.0 | 0.00 | 0.02 | 0.00 | 93 | 1010.7 |
| 20260509123518 | 51 | 161 | 0.0 | 0.0 | 0.00 | 0.02 | 0.00 | 93 | 1010.7 |
| 20260509123021 | 51 | 161 | 0.0 | 0.0 | 0.00 | 0.02 | 0.00 | 93 | 1010.7 |
| 20260509122517 | 51 | 161 | 0.0 | 0.0 | 0.00 | 0.02 | 0.00 | 93 | 1010.7 |
| 20260509122017 | 51 | 161 | 0.0 | 0.0 | 0.00 | 0.02 | 0.00 | 93 | 1010.7 |
| 20260509121516 | 51 | 161 | 0.0 | 0.0 | 0.00 | 0.02 | 0.00 | 93 | 1010.5 |
| 20260509121015 | 51 | 161 | 0.0 | 0.0 | 0.00 | 0.02 | 0.00 | 93 | 1010.5 |
| 20260509120515 | 51 | 161 | 0.0 | 0.0 | 0.00 | 0.02 | 0.00 | 93 | 1010.5 |